Crumpler, NC

12:17 AM EST on January 21, 2017 (GMT -0500)
Ashe County

Weather History for KGEV - April, 2014

Change the Weather History Date:

Wednesday, April 23, 2014

  Actual Average Record
Temperature  
Mean Temperature 52 °F -  
Max Temperature 60 °F 65 °F 81 °F (1980)
Min Temperature 43 °F 41 °F 24 °F (1986)
Degree Days  
Heating Degree Days 14    
Growing Degree Days 2 (Base 50)    
Moisture  
Dew Point 20 °F    
Average Humidity 31    
Maximum Humidity 59    
Minimum Humidity 15    
Precipitation  
Precipitation 0.00 in - - ()
Sea Level Pressure  
Sea Level Pressure 29.90 in    
Wind  
Wind Speed 15 mph (NW)    
Max Wind Speed 25 mph    
Max Gust Speed 37 mph    
Visibility 10 miles    
Events      
Averages and records for this station are not official NWS values.
T = Trace of Precipitation, MM = Missing Value Source: NWS Daily Summary

Daily Weather History Graph

Daily Weather History Graph

Search for Another Location

Airport or City:

Trip Planner

Search our weather history database for the weather conditions in past years. The results will help you decide how hot, cold, wet, or windy it might be!

Date:

Astronomy

Apr. 23, 2014 Rise Set
Actual Time 6:41 AM EDT 8:06 PM EDT
Civil Twilight 6:14 AM EDT 8:33 PM EDT
Nautical Twilight 5:42 AM EDT 9:06 PM EDT
Astronomical Twilight 5:08 AM EDT 9:40 PM EDT
Moon 3:02 AM EDT (4/23) 2:23 PM EDT (4/23)
Length of Visible Light 14h 19m
Length of Day
13h 24m
Waning Crescent, 35% of the Moon is Illuminated
Apr 23
Waning Crescent
Apr 29
New
May 6
First Quarter
May 14
Full
May 21
Last Quarter

Hourly Weather History & Observations

Time (EDT) Temp. Windchill Dew Point Humidity Pressure Visibility Wind Dir Wind Speed Gust Speed Precip Events Conditions
12:15 AM 57.6 °F - 43.5 °F 59% 29.82 in 10.0 mi WNW 18.4 mph 29.9 mph N/A   Mostly Cloudy
12:35 AM 56.7 °F - 42.4 °F 59% 29.82 in 10.0 mi WNW 17.3 mph 28.8 mph N/A   Mostly Cloudy
12:55 AM 56.1 °F - 41.7 °F 58% 29.82 in 10.0 mi WNW 13.8 mph 26.5 mph N/A   Mostly Cloudy
1:15 AM 55.4 °F - 36.7 °F 49% 29.82 in 10.0 mi WNW 13.8 mph 27.6 mph N/A   Scattered Clouds
1:35 AM 54.7 °F - 36.7 °F 51% 29.82 in 10.0 mi WNW 13.8 mph 25.3 mph N/A   Clear
1:55 AM 54.0 °F - 36.9 °F 52% 29.82 in 10.0 mi NW 11.5 mph 21.9 mph N/A   Clear
2:15 AM 53.2 °F - 37.0 °F 54% 29.82 in 10.0 mi NW 13.8 mph 21.9 mph N/A   Clear
2:35 AM 52.7 °F - 35.1 °F 51% 29.82 in 10.0 mi WNW 6.9 mph 17.3 mph N/A   Clear
2:55 AM 51.8 °F - 33.1 °F 49% 29.82 in 10.0 mi NW 12.7 mph 21.9 mph N/A   Clear
3:15 AM 50.9 °F - 31.8 °F 48% 29.81 in 10.0 mi NW 16.1 mph 26.5 mph N/A   Clear
3:35 AM 50.2 °F - 29.8 °F 46% 29.81 in 10.0 mi WNW 11.5 mph 18.4 mph N/A   Clear
3:55 AM 49.6 °F - 27.0 °F 41% 29.80 in 10.0 mi NW 20.7 mph 31.1 mph N/A   Clear
4:15 AM 48.9 °F - 25.9 °F 41% 29.80 in 10.0 mi NW 12.7 mph 24.2 mph N/A   Clear
4:35 AM 48.2 °F - 24.8 °F 40% 29.80 in 10.0 mi NW 13.8 mph 20.7 mph N/A   Clear
4:55 AM 47.7 °F - 25.3 °F 42% 29.80 in 10.0 mi NW 13.8 mph 28.8 mph N/A   Clear
5:15 AM 46.4 °F 39.5 °F 25.9 °F 45% 29.80 in 10.0 mi NW 17.3 mph 28.8 mph N/A   Clear
5:35 AM 45.9 °F 38.0 °F 25.7 °F 45% 29.80 in 10.0 mi NW 20.7 mph 33.4 mph N/A   Clear
5:55 AM 45.5 °F 38.3 °F 25.0 °F 45% 29.80 in 10.0 mi NW 17.3 mph 34.5 mph N/A   Clear
6:15 AM 44.8 °F 36.9 °F 24.8 °F 46% 29.81 in 10.0 mi NW 19.6 mph 25.3 mph N/A   Clear
6:35 AM 44.6 °F 38.1 °F 23.5 °F 44% 29.81 in 10.0 mi NW 13.8 mph 28.8 mph N/A   Clear
6:55 AM 44.4 °F 38.6 °F 21.7 °F 41% 29.82 in 10.0 mi NW 11.5 mph 25.3 mph N/A   Clear
7:15 AM 43.9 °F 36.5 °F 22.5 °F 43% 29.83 in 10.0 mi NW 16.1 mph 26.5 mph N/A   Clear
7:40 AM 44.2 °F 37.0 °F 23.0 °F 43% 29.84 in 10.0 mi NW 16.1 mph 24.2 mph N/A   Clear
7:55 AM 44.1 °F 35.7 °F 23.9 °F 45% 29.84 in 10.0 mi NW 20.7 mph 35.7 mph N/A   Clear
8:15 AM 44.1 °F 35.2 °F 23.5 °F 44% 29.84 in 10.0 mi NW 23.0 mph 32.2 mph N/A   Clear
8:35 AM 44.6 °F 35.9 °F 19.8 °F 37% 29.84 in 10.0 mi NW 23.0 mph 36.8 mph N/A   Clear
8:55 AM 45.5 °F 36.7 °F 16.0 °F 31% 29.84 in 10.0 mi NW 25.3 mph 34.5 mph N/A   Clear
9:15 AM 46.2 °F 38.3 °F 15.3 °F 29% 29.86 in 10.0 mi NW 21.9 mph 35.7 mph N/A   Clear
9:35 AM 47.7 °F - 13.5 °F 25% 29.86 in 10.0 mi NW 23.0 mph 33.4 mph N/A   Clear
9:55 AM 48.2 °F - 12.9 °F 24% 29.87 in 10.0 mi NW 16.1 mph 29.9 mph N/A   Clear
10:15 AM 50.0 °F - 11.3 °F 21% 29.88 in 10.0 mi NW 16.1 mph 25.3 mph N/A   Clear
10:35 AM 50.5 °F - 11.1 °F 21% 29.89 in 10.0 mi NW 15.0 mph 25.3 mph N/A   Clear
10:55 AM 51.3 °F - 11.8 °F 21% 29.90 in 10.0 mi NW 15.0 mph 20.7 mph N/A   Clear
11:15 AM 51.8 °F - 10.8 °F 19% 29.91 in 10.0 mi NW 10.4 mph 26.5 mph N/A   Clear
11:35 AM 52.7 °F - 9.1 °F 17% 29.92 in 10.0 mi NNW 16.1 mph 25.3 mph N/A   Clear
11:55 AM 53.2 °F - 9.5 °F 17% 29.92 in 10.0 mi NW 17.3 mph 26.5 mph N/A   Clear
12:15 PM 54.5 °F - 11.1 °F 18% 29.92 in 10.0 mi NW 17.3 mph 25.3 mph N/A   Clear
12:35 PM 54.7 °F - 12.2 °F 19% 29.92 in 10.0 mi NW 13.8 mph 27.6 mph N/A   Clear
1:35 PM 57.0 °F - 10.6 °F 16% 29.93 in 10.0 mi WNW 11.5 mph 23.0 mph N/A   Clear
1:55 PM 57.4 °F - 10.9 °F 16% 29.93 in 10.0 mi NW 12.7 mph 21.9 mph N/A   Clear
2:15 PM 58.1 °F - 14.9 °F 18% 29.93 in 10.0 mi NNW 12.7 mph 21.9 mph N/A   Clear
2:35 PM 57.7 °F - 16.0 °F 20% 29.93 in 10.0 mi NW 11.5 mph 23.0 mph N/A   Clear
2:55 PM 58.8 °F - 16.0 °F 19% 29.93 in 10.0 mi NNW 13.8 mph 17.3 mph N/A   Clear
3:15 PM 59.0 °F - 14.5 °F 18% 29.94 in 10.0 mi NNW 6.9 mph 19.6 mph N/A   Clear
3:35 PM 60.4 °F - 14.5 °F 17% 29.94 in 10.0 mi NW 8.1 mph - N/A   Clear
3:55 PM 59.9 °F - 13.5 °F 16% 29.94 in 10.0 mi WNW 11.5 mph 20.7 mph N/A   Clear
4:15 PM 59.9 °F - 11.5 °F 15% 29.93 in 10.0 mi NW 19.6 mph 27.6 mph N/A   Clear
4:35 PM 59.9 °F - 11.3 °F 15% 29.93 in 10.0 mi NW 16.1 mph 23.0 mph N/A   Clear
4:55 PM 60.6 °F - 14.9 °F 17% 29.93 in 10.0 mi NNW 12.7 mph 23.0 mph N/A   Clear
5:15 PM 59.9 °F - 13.1 °F 16% 29.93 in 10.0 mi NW 18.4 mph 24.2 mph N/A   Clear
5:35 PM 59.7 °F - 13.6 °F 16% 29.93 in 10.0 mi NW 16.1 mph 23.0 mph N/A   Clear
5:55 PM 59.5 °F - 13.3 °F 16% 29.93 in 10.0 mi West 12.7 mph 19.6 mph N/A   Clear
6:15 PM 59.9 °F - 16.0 °F 18% 29.94 in 10.0 mi NW 10.4 mph 16.1 mph N/A   Clear
6:35 PM 58.6 °F - 15.1 °F 18% 29.95 in 10.0 mi NW 11.5 mph 19.6 mph N/A   Clear
6:55 PM 58.1 °F - 16.2 °F 19% 29.95 in 10.0 mi NW 10.4 mph 17.3 mph N/A   Clear
7:15 PM 57.6 °F - 17.4 °F 21% 29.95 in 10.0 mi NW 8.1 mph - N/A   Clear
7:35 PM 57.0 °F - 17.2 °F 21% 29.95 in 10.0 mi NW 12.7 mph 17.3 mph N/A   Clear
7:55 PM 55.6 °F - 16.7 °F 22% 29.96 in 10.0 mi NW 8.1 mph - N/A   Clear
8:15 PM 54.5 °F - 17.1 °F 23% 29.97 in 10.0 mi NW 8.1 mph 18.4 mph N/A   Clear
8:35 PM 53.1 °F - 17.6 °F 25% 29.98 in 10.0 mi NNW 5.8 mph - N/A   Clear
8:55 PM 52.3 °F - 16.7 °F 24% 29.99 in 10.0 mi NW 6.9 mph - N/A   Clear
9:15 PM 51.8 °F - 16.2 °F 24% 30.00 in 10.0 mi NW 6.9 mph 18.4 mph N/A   Clear
9:35 PM 51.3 °F - 16.5 °F 25% 30.01 in 10.0 mi NW 10.4 mph 17.3 mph N/A   Clear
9:55 PM 50.5 °F - 17.6 °F 27% 30.02 in 10.0 mi NNW 9.2 mph - N/A   Clear
10:15 PM 50.2 °F - 18.3 °F 28% 30.02 in 10.0 mi NW 11.5 mph 20.7 mph N/A   Clear
10:35 PM 49.6 °F - 19.4 °F 30% 30.02 in 10.0 mi NNW 10.4 mph 16.1 mph N/A   Clear
10:55 PM 49.3 °F - 19.4 °F 31% 30.00 in 10.0 mi NW 16.1 mph 20.7 mph N/A   Clear
11:15 PM 49.1 °F - 19.4 °F 31% 30.01 in 10.0 mi NW 13.8 mph 19.6 mph N/A   Clear
11:35 PM 48.6 °F - 19.6 °F 32% 30.02 in 10.0 mi NNW 10.4 mph - N/A   Clear
11:55 PM 48.6 °F - 19.4 °F 32% 30.02 in 10.0 mi WNW 11.5 mph 17.3 mph N/A   Clear